Time,TemperatureF,DewpointF,PressureIn,WindDirection,WindDirectionDegrees,WindSpeedMPH,WindSpeedGustMPH,Humidity,HourlyPrecipIn,Conditions,Clouds,dailyrainin,SolarRadiationWatts/m^2,SoftwareType,DateUTC
2013-04-07 00:02:00,41.0,34.0,-100.00,WNW,290,20.0,39.0,77,0.00,,,0.00,0.000000,,2013-04-07 07:02:00,
2013-04-07 00:12:00,41.0,34.0,-100.00,WNW,290,20.0,39.0,77,0.00,,,0.00,0.000000,,2013-04-07 07:12:00,
2013-04-07 00:22:00,41.0,34.0,-100.00,WNW,290,20.0,39.0,77,0.00,,,0.00,0.000000,,2013-04-07 07:22:00,
2013-04-07 00:52:00,42.0,36.0,-100.00,NW,310,26.0,38.0,78,0.00,,,0.00,0.000000,,2013-04-07 07:52:00,
2013-04-07 01:02:00,42.0,36.0,-100.00,NW,310,26.0,38.0,78,0.00,,,0.00,0.000000,,2013-04-07 08:02:00,
2013-04-07 01:12:00,42.0,36.0,-100.00,NW,310,26.0,38.0,78,0.00,,,0.00,0.000000,,2013-04-07 08:12:00,
2013-04-07 01:22:00,42.0,36.0,-100.00,NW,310,26.0,38.0,78,0.00,,,0.00,0.000000,,2013-04-07 08:22:00,
2013-04-07 01:53:00,40.0,33.0,-100.00,WNW,300,26.0,41.0,76,0.00,,,0.00,0.000000,,2013-04-07 08:53:00,
2013-04-07 02:02:00,40.0,33.0,-100.00,WNW,300,26.0,41.0,76,0.00,,,0.00,0.000000,,2013-04-07 09:02:00,
2013-04-07 02:12:00,40.0,33.0,-100.00,WNW,300,26.0,41.0,76,0.00,,,0.00,0.000000,,2013-04-07 09:12:00,
2013-04-07 02:22:00,40.0,33.0,-100.00,WNW,300,26.0,41.0,76,0.00,,,0.00,0.000000,,2013-04-07 09:22:00,
2013-04-07 02:53:00,39.0,32.0,-100.00,WNW,294,25.0,42.0,75,0.00,,,0.00,0.000000,,2013-04-07 09:53:00,
2013-04-07 03:03:00,39.0,32.0,-100.00,WNW,294,25.0,42.0,75,0.00,,,0.00,0.000000,,2013-04-07 10:03:00,
2013-04-07 03:13:00,39.0,32.0,-100.00,WNW,294,25.0,42.0,75,0.00,,,0.00,0.000000,,2013-04-07 10:13:00,
2013-04-07 03:22:00,39.0,32.0,-100.00,WNW,294,25.0,42.0,75,0.00,,,0.00,0.000000,,2013-04-07 10:22:00,
2013-04-07 04:02:00,39.0,33.0,-100.00,WNW,287,15.0,40.0,78,0.00,,,0.00,0.000000,,2013-04-07 11:02:00,
2013-04-07 04:12:00,39.0,33.0,-100.00,WNW,287,15.0,40.0,78,0.00,,,0.00,0.000000,,2013-04-07 11:12:00,
2013-04-07 04:22:00,39.0,33.0,-100.00,WNW,287,15.0,40.0,78,0.00,,,0.00,0.000000,,2013-04-07 11:22:00,
2013-04-07 04:53:00,39.0,32.0,-100.00,NW,308,22.0,30.0,77,0.00,,,0.00,0.000000,,2013-04-07 11:53:00,
2013-04-07 05:02:00,39.0,32.0,-100.00,NW,308,22.0,30.0,77,0.00,,,0.00,0.000000,,2013-04-07 12:02:00,
2013-04-07 05:12:00,39.0,32.0,-100.00,NW,308,22.0,30.0,77,0.00,,,0.00,0.000000,,2013-04-07 12:12:00,
2013-04-07 05:21:00,39.0,32.0,-100.00,NW,308,22.0,30.0,77,0.00,,,0.00,0.000000,,2013-04-07 12:21:00,
2013-04-07 05:53:00,39.0,32.0,-100.00,NW,317,25.0,33.0,77,0.00,,,0.00,0.000000,,2013-04-07 12:53:00,
2013-04-07 06:03:00,39.0,32.0,-100.00,NW,317,25.0,33.0,77,0.00,,,0.00,0.000000,,2013-04-07 13:03:00,
2013-04-07 06:12:00,39.0,32.0,-100.00,NW,317,25.0,33.0,77,0.00,,,0.00,0.000000,,2013-04-07 13:12:00,
2013-04-07 06:22:00,39.0,32.0,-100.00,NW,317,25.0,33.0,77,0.00,,,0.00,0.000000,,2013-04-07 13:22:00,
2013-04-07 06:53:00,39.0,33.0,-100.00,NW,317,24.0,34.0,78,0.00,,,0.00,0.000000,,2013-04-07 13:53:00,
2013-04-07 07:02:00,39.0,33.0,-100.00,NW,317,24.0,34.0,78,0.00,,,0.00,0.000000,,2013-04-07 14:02:00,
2013-04-07 07:12:00,39.0,33.0,-100.00,NW,317,24.0,34.0,78,0.00,,,0.00,0.000000,,2013-04-07 14:12:00,
2013-04-07 07:22:00,39.0,33.0,-100.00,NW,317,24.0,34.0,78,0.00,,,0.00,0.000000,,2013-04-07 14:22:00,
2013-04-07 07:53:00,39.0,33.0,-100.00,NW,321,23.0,33.0,79,0.00,,,-99.99,29.000000,,2013-04-07 14:53:00,
2013-04-07 08:02:00,39.0,33.0,-100.00,NW,321,23.0,33.0,79,0.00,,,-99.99,29.000000,,2013-04-07 15:02:00,
2013-04-07 08:12:00,39.0,33.0,-100.00,NW,321,23.0,33.0,79,0.00,,,-99.99,29.000000,,2013-04-07 15:12:00,
2013-04-07 08:22:00,39.0,33.0,-100.00,NW,321,23.0,33.0,79,0.00,,,-99.99,29.000000,,2013-04-07 15:22:00,
2013-04-07 08:54:00,41.0,34.0,-100.00,NW,317,24.0,32.0,77,0.00,,,0.00,116.000000,,2013-04-07 15:54:00,
2013-04-07 09:03:00,41.0,34.0,-100.00,NW,317,24.0,32.0,77,0.00,,,0.00,116.000000,,2013-04-07 16:03:00,
2013-04-07 09:13:00,41.0,34.0,-100.00,NW,317,24.0,32.0,77,0.00,,,0.00,116.000000,,2013-04-07 16:13:00,
2013-04-07 09:23:00,41.0,34.0,-100.00,NW,317,24.0,32.0,77,0.00,,,0.00,116.000000,,2013-04-07 16:23:00,
2013-04-07 09:54:00,41.0,33.0,-100.00,NW,319,24.0,33.0,74,0.00,,,0.00,243.000000,,2013-04-07 16:54:00,
2013-04-07 10:03:00,41.0,33.0,-100.00,NW,319,24.0,33.0,74,0.00,,,0.00,243.000000,,2013-04-07 17:03:00,
2013-04-07 10:12:00,41.0,33.0,-100.00,NW,319,24.0,33.0,74,0.00,,,0.00,243.000000,,2013-04-07 17:12:00,
2013-04-07 10:22:00,41.0,33.0,-100.00,NW,319,24.0,33.0,74,0.00,,,0.00,243.000000,,2013-04-07 17:22:00,
2013-04-07 10:53:00,43.0,33.0,-100.00,NW,323,30.0,36.0,67,0.00,,,0.00,412.000000,,2013-04-07 17:53:00,
2013-04-07 11:02:00,43.0,33.0,-100.00,NW,323,30.0,36.0,67,0.00,,,0.00,412.000000,,2013-04-07 18:02:00,
2013-04-07 11:12:00,43.0,33.0,-100.00,NW,323,30.0,36.0,67,0.00,,,0.00,412.000000,,2013-04-07 18:12:00,
2013-04-07 11:22:00,43.0,33.0,-100.00,NW,323,30.0,36.0,67,0.00,,,0.00,412.000000,,2013-04-07 18:22:00,
2013-04-07 11:52:00,46.0,32.0,-100.00,NNW,328,29.0,40.0,58,0.00,,,0.00,684.000000,,2013-04-07 18:52:00,
2013-04-07 12:02:00,46.0,32.0,-100.00,NNW,328,29.0,40.0,58,0.00,,,0.00,684.000000,,2013-04-07 19:02:00,
2013-04-07 12:12:00,46.0,32.0,-100.00,NNW,328,29.0,40.0,58,0.00,,,0.00,684.000000,,2013-04-07 19:12:00,
2013-04-07 12:22:00,46.0,32.0,-100.00,NNW,328,29.0,40.0,58,0.00,,,0.00,684.000000,,2013-04-07 19:22:00,
2013-04-07 12:54:00,49.0,32.0,-100.00,NW,320,25.0,37.0,51,0.00,,,0.00,1006.000000,,2013-04-07 19:54:00,
2013-04-07 13:02:00,49.0,32.0,-100.00,NW,320,25.0,37.0,51,0.00,,,0.00,1006.000000,,2013-04-07 20:02:00,
2013-04-07 13:12:00,49.0,32.0,-100.00,NW,320,25.0,37.0,51,0.00,,,0.00,1006.000000,,2013-04-07 20:12:00,
2013-04-07 13:22:00,49.0,32.0,-100.00,NW,320,25.0,37.0,51,0.00,,,0.00,1006.000000,,2013-04-07 20:22:00,
2013-04-07 13:53:00,54.0,32.0,-100.00,NW,325,28.0,37.0,43,0.00,,,0.00,1206.000000,,2013-04-07 20:53:00,
2013-04-07 14:02:00,54.0,32.0,-100.00,NW,325,28.0,37.0,43,0.00,,,0.00,1206.000000,,2013-04-07 21:02:00,
2013-04-07 14:12:00,54.0,32.0,-100.00,NW,325,28.0,37.0,43,0.00,,,0.00,1206.000000,,2013-04-07 21:12:00,
2013-04-07 14:21:00,54.0,32.0,-100.00,NW,325,28.0,37.0,43,0.00,,,0.00,1206.000000,,2013-04-07 21:21:00,
2013-04-07 14:55:00,56.0,34.0,-100.00,NW,321,20.0,38.0,43,0.00,,,0.00,1171.000000,,2013-04-07 21:55:00,
2013-04-07 15:03:00,56.0,34.0,-100.00,NW,321,20.0,38.0,43,0.00,,,0.00,1171.000000,,2013-04-07 22:03:00,
2013-04-07 15:13:00,56.0,34.0,-100.00,NW,321,20.0,38.0,43,0.00,,,0.00,1171.000000,,2013-04-07 22:13:00,
2013-04-07 15:23:00,56.0,34.0,-100.00,NW,321,20.0,38.0,43,0.00,,,0.00,1171.000000,,2013-04-07 22:23:00,
2013-04-07 15:53:00,55.0,35.0,-100.00,NW,325,22.0,32.0,47,0.00,,,0.00,1045.000000,,2013-04-07 22:53:00,
2013-04-07 16:03:00,55.0,35.0,-100.00,NW,325,22.0,32.0,47,0.00,,,0.00,1045.000000,,2013-04-07 23:03:00,
2013-04-07 16:12:00,55.0,35.0,-100.00,NW,325,22.0,32.0,47,0.00,,,0.00,1045.000000,,2013-04-07 23:12:00,
2013-04-07 16:22:00,55.0,35.0,-100.00,NW,325,22.0,32.0,47,0.00,,,0.00,1045.000000,,2013-04-07 23:22:00,
2013-04-07 16:52:00,53.0,30.0,-100.00,WNW,286,20.0,36.0,41,0.00,,,0.00,764.000000,,2013-04-07 23:52:00,
2013-04-07 17:02:00,53.0,30.0,-100.00,WNW,286,20.0,36.0,41,0.00,,,0.00,764.000000,,2013-04-08 00:02:00,
2013-04-07 17:12:00,53.0,30.0,-100.00,WNW,286,20.0,36.0,41,0.00,,,0.00,764.000000,,2013-04-08 00:12:00,
2013-04-07 17:22:00,53.0,30.0,-100.00,WNW,286,20.0,36.0,41,0.00,,,0.00,764.000000,,2013-04-08 00:22:00,
2013-04-07 17:53:00,50.0,29.0,-100.00,West,276,30.0,43.0,44,0.00,,,0.00,594.000000,,2013-04-08 00:53:00,
2013-04-07 18:02:00,50.0,29.0,-100.00,West,276,30.0,43.0,44,0.00,,,0.00,594.000000,,2013-04-08 01:02:00,
2013-04-07 18:12:00,50.0,29.0,-100.00,West,276,30.0,43.0,44,0.00,,,0.00,594.000000,,2013-04-08 01:12:00,
2013-04-07 18:22:00,50.0,29.0,-100.00,West,276,30.0,43.0,44,0.00,,,0.00,594.000000,,2013-04-08 01:22:00,
2013-04-07 18:55:00,47.0,30.0,-100.00,West,278,39.0,55.0,51,0.00,,,0.00,301.000000,,2013-04-08 01:55:00,
2013-04-07 19:02:00,47.0,30.0,-100.00,West,278,39.0,55.0,51,0.00,,,0.00,301.000000,,2013-04-08 02:02:00,
2013-04-07 19:12:00,47.0,30.0,-100.00,West,278,39.0,55.0,51,0.00,,,0.00,301.000000,,2013-04-08 02:12:00,
2013-04-07 19:22:00,47.0,30.0,-100.00,West,278,39.0,55.0,51,0.00,,,0.00,301.000000,,2013-04-08 02:22:00,
2013-04-07 19:54:00,44.0,30.0,-100.00,West,278,34.0,68.0,57,0.00,,,0.00,59.000000,,2013-04-08 02:54:00,
2013-04-07 20:05:00,44.0,30.0,-100.00,West,278,34.0,68.0,57,0.00,,,0.00,59.000000,,2013-04-08 03:05:00,
2013-04-07 20:14:00,44.0,30.0,-100.00,West,278,34.0,68.0,57,0.00,,,0.00,59.000000,,2013-04-08 03:14:00,
2013-04-07 20:23:00,44.0,30.0,-100.00,West,278,34.0,68.0,57,0.00,,,0.00,59.000000,,2013-04-08 03:23:00,
2013-04-07 20:55:00,43.0,32.0,-100.00,West,277,36.0,57.0,64,0.00,,,0.00,0.000000,,2013-04-08 03:55:00,
2013-04-07 21:02:00,43.0,32.0,-100.00,West,277,36.0,57.0,64,0.00,,,0.00,0.000000,,2013-04-08 04:02:00,
2013-04-07 21:12:00,43.0,32.0,-100.00,West,277,36.0,57.0,64,0.00,,,0.00,0.000000,,2013-04-08 04:12:00,
2013-04-07 21:23:00,43.0,32.0,-100.00,West,277,36.0,57.0,64,0.00,,,0.00,0.000000,,2013-04-08 04:23:00,
2013-04-07 21:53:00,43.0,30.0,-100.00,West,276,29.0,53.0,61,0.00,,,0.00,0.000000,,2013-04-08 04:53:00,
2013-04-07 22:02:00,43.0,30.0,-100.00,West,276,29.0,53.0,61,0.00,,,0.00,0.000000,,2013-04-08 05:02:00,
2013-04-07 22:12:00,43.0,30.0,-100.00,West,276,29.0,53.0,61,0.00,,,0.00,0.000000,,2013-04-08 05:12:00,
2013-04-07 22:22:00,43.0,30.0,-100.00,West,276,29.0,53.0,61,0.00,,,0.00,0.000000,,2013-04-08 05:22:00,
2013-04-07 22:52:00,41.0,33.0,-100.00,West,280,32.0,52.0,74,0.00,,,0.00,0.000000,,2013-04-08 05:52:00,
2013-04-07 23:02:00,41.0,33.0,-100.00,West,280,32.0,52.0,74,0.00,,,0.00,0.000000,,2013-04-08 06:02:00,
2013-04-07 23:12:00,41.0,33.0,-100.00,West,280,32.0,52.0,74,0.00,,,0.00,0.000000,,2013-04-08 06:12:00,
2013-04-07 23:21:00,41.0,33.0,-100.00,West,280,32.0,52.0,74,0.00,,,0.00,0.000000,,2013-04-08 06:21:00,
2013-04-07 23:52:00,42.0,34.0,-100.00,West,277,44.0,71.0,74,0.00,,,0.00,0.000000,,2013-04-08 06:52:00,